Regional Weather Roundup
Issued by NWS Boston, MA

Home | Current Version | Previous Version | Text Only | Print | Product List | Glossary On
Versions: 1 2 3 4 5 6 7 8 9 10 11 12 13 14 15 16 17 18 19 20 21 22 23 24 25 26 27 28
000
ASUS41 KBOX 060010
RWRBOX

REGIONAL WEATHER ROUNDUP
NATIONAL WEATHER SERVICE TAUNTON MA
800 PM EDT THU MAY 05 2016

NOTE:  "FAIR" INDICATES FEW OR NO CLOUDS BELOW 12,000 FEET WITH NO
SIGNIFICANT WEATHER AND/OR OBSTRUCTIONS TO VISIBILITY.  THE FOLLOWING
OBSERVATION LOCATIONS DO NOT REPORT PRESENT WEATHER...PROVINCETOWN...
SMITHFIELD...BLOCK ISLAND...KEENE...AND OXFORD.

MAZALL-060100-
EASTERN MASSACHUSETTS

CITY           SKY/WX    TMP DP  RH WIND       PRES   REMARKS
BOSTON         LGT RAIN  45  42  89 NE15      29.72F
6HR MIN TEMP:  44; 6HR MAX TEMP:  47; 6HR PCP:  0.06;

BEVERLY        LGT RAIN  45  41  86 N13G23    29.71F
LAWRENCE       LGT RAIN  45  42  89 NE13      29.74F VSB 1
BEDFORD        CLOUDY    45  43  93 NE12      29.71F
BLUE HILL        N/A     41  41 100 NE16G33   29.67F
NORWOOD        CLOUDY    45  42  89 NE13G23   29.70F
MARSHFIELD     LGT RAIN  45  43  93 N10G26    29.70F
PLYMOUTH       LGT RAIN  44  42  93 NE24G35   29.66F
TAUNTON        LGT RAIN  46  41  82 NE12G24   29.66F
NEW BEDFORD    LGT RAIN  44  41  89 N17G30    29.62F
$$

MAZALL-060100-
CAPE COD AND THE ISLANDS

CITY           SKY/WX    TMP DP  RH WIND       PRES   REMARKS
FALMOUTH       LGT RAIN  43  43 100 NE22G35   29.61S
HYANNIS        RAIN      44  42  93 N20G33    29.59F
CHATHAM        LGT RAIN  44  43  96 N14G28    29.61F
PROVINCETOWN   LGT RAIN  44  42  93 NE21G32   29.66S
NANTUCKET      RAIN      45  43  93 N29G40    29.57R FOG
MARTHAS VNYRD  LGT RAIN  45  42  89 NE23G36   29.59F
$$

MAZALL-060100-
CENTRAL AND WESTERN MASSACHUSETTS

CITY           SKY/WX    TMP DP  RH WIND       PRES   REMARKS
WORCESTER      LGT RAIN  42  41  96 NE12G17   29.68F FOG
6HR MIN TEMP:  42; 6HR MAX TEMP:  44; 6HR PCP:  0.04;

FITCHBURG      LGT RAIN  47  43  86 MISG      29.73S FOG
ORANGE         CLOUDY    47  43  86 N8        29.72R
SPRINGFIELD    LGT RAIN  49  43  80 NE9       29.69S
WESTFIELD      CLOUDY    51  42  71 NE17      29.70R
NORTH ADAMS    CLOUDY    53  44  71 SE6       29.70S
PITTSFIELD     CLOUDY    50  42  74 NE10      29.69R
$$

RIZALL-060100-
RHODE ISLAND

CITY           SKY/WX    TMP DP  RH WIND       PRES   REMARKS
PROVIDENCE     LGT RAIN  45  41  86 N16G28    29.67S
6HR MIN TEMP:  44; 6HR MAX TEMP:  47; 6HR PCP:  0.02;

NEWPORT        CLOUDY    44  41  89 N25G41    29.61F
BLOCK ISLAND   CLOUDY    45  42  89 N21G31    29.63R
SMITHFIELD     CLOUDY    43  39  87 NE17G29   29.68S
WESTERLY       LGT RAIN  46  40  79 N14G22    29.64S
$$

CTZALL-060100-
CONNECTICUT

CITY           SKY/WX    TMP DP  RH WIND       PRES   REMARKS
BRADLEY INTL   DRIZZLE   49  44  83 NE9       29.69R
6HR MIN TEMP:  49; 6HR MAX TEMP:  53; 6HR PCP: TRACE;

HARTFORD       CLOUDY    51  44  77 N15G22    29.69R
BRIDGEPORT     CLOUDY    53  43  68 NE15      29.67R
DANBURY        CLOUDY    53  43  68 NE8G21    29.67R
GROTON         CLOUDY    46  43  89 N17G29    29.63R
NEW HAVEN      CLOUDY    50  43  77 N18G24    29.66R
CHESTER        CLOUDY    48  43  81 N13G20    29.66R
MERIDEN        CLOUDY    50  43  77 N12G21    29.68R
WILLIMANTIC    CLOUDY    49  40  71 NE13G25   29.68R
OXFORD         CLOUDY    48  41  76 NE12G21   29.68R
$$

MEZ002-015-021-024-NHZ003-005-008-011-012-014-VTZ005-008-060100-
NORTHERN NEW ENGLAND

CITY           SKY/WX    TMP DP  RH WIND       PRES   REMARKS
PORTLAND ME    CLOUDY    47  41  80 N15G22    29.76F
6HR MIN TEMP:  47; 6HR MAX TEMP:  48;

BANGOR ME      CLOUDY    50  40  68 NE13      29.80F
CONCORD NH     CLOUDY    50  41  71 NE8       29.74S
MANCHESTER NH  LGT RAIN  47  42  83 NE10      29.73S
NASHUA NH      LGT RAIN  46  44  93 NE6       29.74F
PORTSMOUTH NH  LGT RAIN  45  43  93 NE8       29.72F
JAFFREY NH     CLOUDY    45  43  93 NE8       29.71F FOG
KEENE NH       CLOUDY    52  43  71 N10       29.73S
BURLINGTON VT  MOCLDY    58  40  51 N9        29.76S
MT. WASHINGTON NOT AVBL
$$

NYZ052-076-060100-
EASTERN NEW YORK

CITY           SKY/WX    TMP DP  RH WIND       PRES   REMARKS
ALBANY         CLOUDY    56  44  64 N8        29.71S
6HR MIN TEMP:  56; 6HR MAX TEMP:  58;

NEW YORK CITY  CLOUDY    57  48  72 NE14G24   29.65R
6HR MIN TEMP:  56; 6HR MAX TEMP:  58;

$$

ANZALL-060100-
MARINE OBSERVATIONS

STATION/POSITION TIME  TEMP    WIND        PRES    VSBY  WAVE
                       AIR SEA DIR/SP/G                  HT/PER
                 (UTC) (F)     (DEG/KT/KT) (MB)    (MI)  (FT/S)
BOSTON BUOY      2350   45 47   20/ 25/ 31 1004.2F         9/ 8
BUZZARDS BAY     2300   45      20/ 30/ 35 1002.6R
NANTUCKET SOUND  2350   46 47   10/ 25/ 29 1001.1F         4/ 5
MASS BAY-STELLWA 2304   44 45                N/A    1 3/8  8/ 8
ISLE OF SHOALS   2300   44      30/ 21/ 23 1006.7F
S OF BLOCK IS    NOT AVBL
$$

......................KEY.........................
  SKY/WX - SKY CONDITION/PRESENT WEATHER
  TMP    - TEMPERATURE IN FAHRENHEIT
  DWPT   - DEWPOINT IN FAHRENHEIT
  RH     - RELATIVE HUMIDITY IN PERCENT
  WIND   - DIRECTION AND SPEED IN MPH
  PRES   - MEAN SEA LEVEL PRESSURE IN INCHES OF HG
  WCI    - WIND CHILL INDEX
  VSB    - VISIBILITY IN MILES
  HX     - HEAT INDEX
  TC     - TEMPERATURE IN CELSIUS
  VRB    - VARIABLE WIND DIRECTION
  N/A    - NOT AVAILABLE




USA.gov is the U.S. government's official web portal to all federal, state and local government web resources and services.